Regional Weather Roundup
Issued by NWS

Home | Current Version | Previous Version | Graphics & Text | Print | Product List | Glossary Off
Versions: 1 2 3 4 5 6 7 8 9 10 11 12 13 14 15 16 17 18 19 20 21 22 23 24 25 26 27 28 29 30 31 32 33 34 35 36 37 38 39 40 41 42 43 44 45 46 47 48 49 50

000
ASUS43 KDTX 030810
RWRMI
MICHIGAN HOURLY REGIONAL WEATHER ROUNDUP
NATIONAL WEATHER SERVICE DETROIT/PONTIAC MI
400 AM EDT WED JUN 03 2015

NOTE: "FAIR" INDICATES FEW OR NO CLOUDS BELOW 12,000 FEET WITH NO
SIGNIFICANT WEATHER AND/OR OBSTRUCTION TO VISIBILITY.

MIZ047>049-052>055-059>063-066>070-074>076-081>083-030900-
SOUTHEAST LOWER MICHIGAN

CITY           SKY/WX    TMP DP  RH WIND       PRES   REMARKS
ADRIAN         CLEAR     49  45  86 NE3       30.12F
ALMA           CLEAR     45  44  96 CALM      30.14S
ANN ARBOR      CLEAR     43  42  97 NE3       30.13S
BAD AXE        CLEAR     44  37  74 S5        30.16S
CARO           CLEAR     41  40  96 CALM      30.15S
DETROIT CITY   CLEAR     52  46  80 NE3       30.14
DETROIT        PTCLDY    52  46  80 CALM      30.14R
FLINT          CLEAR     49  46  90 CALM      30.16R FOG
GROSSE ILE     CLEAR     52  46  82 CALM      30.12R
HILLSDALE      CLEAR     52  49  88 E5        30.11F
HOWELL         CLEAR     47  46  96 CALM      30.14S FOG

CITY           SKY/WX    TMP DP  RH WIND       PRES   REMARKS
JACKSON        CLEAR     48  43  82 CALM      30.12F
LAMBERTVILLE   CLEAR     50  46  87 CALM      30.12S
LANSING        CLEAR     48  44  86 E3        30.14S
LAPEER         FAIR      41  39  93 CALM      30.15S
MASON          CLEAR     44  42  90 CALM      30.13F
MONROE         CLEAR     52  48  87 N6        30.11R
MT. CLEMENS    CLEAR     49  46  88 N5        30.12R
PONTIAC        CLEAR     48  46  93 CALM      30.13
PORT HOPE        N/A     51  38  60 S5        30.14S
PORT HURON     CLEAR     43  43 100 CALM      30.15R
TRI CITIES     CLEAR     53  46  77 CALM      30.15S
MIDLAND        FAIR      44  43  95 CALM      30.14S
TROY           CLEAR     54  47  80 CALM      30.15S
SAGINAW HB     CLEAR     48  48 100 CALM      30.15R
$$
MIZ043>046-050>051-056>058-064>065-071>073-077>080-030900-
SOUTHWEST LOWER MICHIGAN

CITY           SKY/WX    TMP DP  RH WIND       PRES   REMARKS
BATTLE CREEK   CLEAR     50  43  77 CALM      30.12F
BENTON HARBOR  CLEAR     47  44  90 SE3       30.10F
BIG RAPIDS     CLEAR     46  42  86 CALM      30.12S
COLDWATER      CLEAR     46  44  95 CALM      30.12S
FREMONT        FAIR      52  48  86 SE3       30.11S
HOLLAND        CLEAR     50  45  83 E6        30.12F
GRAND RAPIDS   CLEAR     52  48  86 CALM      30.12F
IONIA          FAIR      50  47  90 SE3       30.12F
KALAMAZOO      CLEAR     49  42  77 CALM      30.12F
LUDINGTON      CLEAR     44  41  89 CALM      30.10S
MARSHALL       CLEAR     45  43  92 CALM      30.11F
MOUNT PLEASANT CLEAR     45  44  95 CALM      30.13F
MUSKEGON       CLEAR     54  46  74 SE5       30.11F
SOUTH HAVEN    CLEAR     52  43  72 SE5       30.10F
$$
MIZ016>042-030900-
NORTHERN LOWER MICHIGAN

CITY           SKY/WX    TMP DP  RH WIND       PRES   REMARKS
ALPENA         CLEAR     40  35  83 CALM      30.14S
BEAVER ISLAND  CLEAR     47  35  63 SE6       30.09S
BELLAIRE       CLEAR     42  40  95 CALM      30.10F
CADILLAC       CLEAR     48  41  76 S5        30.11S
CHARLEVOIX     CLEAR     47  42  82 SE5       30.13F
FRANKFORT      CLEAR     45  37  72 CALM      30.09F
GAYLORD        CLEAR     50  40  68 S3        30.12F
GRAYLING       CLEAR     40  36  86 CALM      30.14S
HARBOR SPRINGS CLEAR     45  40  84 CALM      30.11S
HOUGHTON LAKE  CLEAR     48  42  80 SE6       30.14R
MANISTEE       CLEAR     43  37  81 E6        30.10S
OSCODA         CLEAR     39  36  87 CALM      30.15S
PELLSTON       CLEAR     40  38  93 CALM      30.11F
ROGERS CITY    CLEAR     52  37  56 S10       30.13S
TRAVERSE CITY  CLEAR     44  41  89 CALM      30.09F
$$
MIZ007>008-015-030900-
EASTERN UPPER MICHIGAN

CITY           SKY/WX    TMP DP  RH WIND       PRES   REMARKS
KINROSS        CLEAR     46  37  71 CALM      30.10F
MACKINAC ISLAN CLEAR     52  41  67 S8        30.10S
NEWBERRY       PTCLDY    43  38  84 S8        30.07F
S. S. MARIE    CLEAR     46  38  73 E5        30.10S
MUNISING         N/A     51  35  54 S8        30.03F
$$
MIZ004>006-011>014-085-030900-
CENTRAL UPPER MICHIGAN

CITY           SKY/WX    TMP DP  RH WIND       PRES   REMARKS
MANISTIQUE     PTCLDY    47  36  63 S6        30.07F
ESCANABA       MOCLDY    52  43  71 S5        30.05F
MENOMINEE      PTCLDY    48  41  76 S5        30.05F
SAWYER-GWINN   MOCLDY    47  40  77 S10       30.03F
$$
MIZ001>003-009>011-084-030900-
WESTERN UPPER MICHIGAN

CITY           SKY/WX    TMP DP  RH WIND       PRES   REMARKS
IRON MOUNTAIN  CLEAR     48  37  65 SE6       30.02F
HOUGHTON       MOCLDY    55  43  63 S8        29.96F
COPPER HARBOR    N/A     57  41  55 SW7       29.95F
IRONWOOD       MOCLDY    61  43  51 S6        29.92S
$$

ABBREVIATIONS USED IN REMARKS
   TC - TEMPERATURE IN CELSIUS
  WCI - WIND CHILL INDEX
   HX - HEAT INDEX
  VSB - VISIBILITY




USA.gov is the U.S. government's official web portal to all federal, state and local government web resources and services.